Location: Unspecified
(35.7250°N, 0.0000°E)
Time: 16:52:59
(UTC+00:00)

Vanguard 1 Rocket - Pass Details

Date: 23 June 2019
Orbit: 651 x 4225 km, 34.3° (Epoch: 18 July)

Event Time Altitude Azimuth Distance (km) Brightness Sun altitude
Rises 13:38:36 0° 207° (SSW) 8,452 12.6 65.8°
Reaches altitude 10° 13:45:46 10° 199° (SSW) 7,381 12.4 64.5°
Maximum altitude 14:05:45 33° 146° (SE) 4,773 11.4 60.6°
Drops below altitude 10° 14:19:17 10° 90° (E) 5,106 11.0 58.0°
Sets 14:22:59 0° 81° (E) 5,670 11.1 57.2°
